STARLINK-31399, 59416

Orbit data source: Space-Track

STARLINK-31399, 59416 is a payload satellite owned by SpaceX/Seattle (US) in LEO that was launched on Fri, 05 Apr 2024 UTC via an FALCON 9 launch vehicle from the Air Force Eastern Test Range (AFETR). Payload-class satellites include a variety of spacecraft equipped with specific instruments for various scientific and technological missions. These include communications satellites like Starlink; space stations such as the ISS; scientific satellites like the Hubble; Earth observation satellites from companies like Planet Labs, Umbra, and HawkEye 360; GPS; miniature CubeSats for education and research; and military/defense satellites.

Loading next visibility...
Identifier
59416, 2024-064U
Orbit
LEO
Country
Flag of USUS
Related business
Manufacturer
SpaceX/Seattle
Mission
Operational Commercial Communications
Bus & Motor
STARLINK V2M, Unknown motor
Mass
730 kg wet, ~700 kg dry
Launch date (UTC)
2024-04-05 (2 years ago)
Launch vehicle
FALCON 9
Launch site
Air Force Eastern Test Range (AFETR)
Object type
Payload
Rocket body
Debris
Shape & HBR
Box + 2 Pan, 17.7 m
Radar Cross Section
33.884 m², Large (>1 m²)

Expand to show TLE details & history
Last TLE update: 2 days ago

TLE from 2 days ago
0 STARLINK-31399
1 59416U 24064U   26171.05798642  .00001093  00000-0  49264-4 0  9991
2 59416  43.0004 197.8745 0000982 263.1427  96.9313 15.27566818124886
Epoch: 2026-06-20T01:23Z
TLE epoch observation values (Epoch: 2026-06-20T01:23:30.026Z)
Latitude
-0.00002°
Longitude
-91.2787°
Altitude
482.945 km
Speed
7.626 km/s
True Right ascension
13h 11m 29s
True Declination
0° 00' 00"
Sunlit
Object was in daylight at epoch
Visualization orbit readout
Latitude
Unknown
Longitude
Unknown
Altitude
Unknown
Speed
Unknown
Apparent Right ascension
Unknown
Apparent Declination
Unknown
Sunlit
N/A
Visualization observer readout
Local Sidereal Time
21:30:29
Azimuth
Unknown
Elevation
Unknown
Doppler factor
Unknown
Orbital elements
Apogee altitude
485.708 km
Perigee altitude
484.36 km
Semi-major axis
6,863.171 km
Eccentricity
0.0001
Inclination
43.0004°
RAAN
197.8745°
Arg. of periapsis
263.1427°
True anomaly
96.94247°
Mean anomaly
96.9313°
Eccentric anomaly
96.93689°
Mean motion
3.8173 °/min
Orbital period
94.31 mins
BSTAR
0.000049264
Loading maneuver chart data...
Computing Atmospheric mass density...
Loading historical data...
Loading historical data...
Loading historical data...
Loading historical data...
Loading historical data...
Loading historical data...
Loading historical data...

Documentation

Showing up to 5 results
|